TimeMDT,TemperatureF,Dew PointF,Humidity,Sea Level PressureIn,VisibilityMPH,Wind Direction,Wind SpeedMPH,Gust SpeedMPH,PrecipitationIn,Events,Conditions,WindDirDegrees,DateUTC
12:53 AM,36.0,32.0,86,29.61,10.0,NW,21.9,29.9,0.00,,Overcast,310,2013-03-21 06:53:00
1:14 AM,35.6,30.2,81,29.63,10.0,WNW,13.8,20.7,0.00,,Overcast,290,2013-03-21 07:14:00
1:25 AM,33.8,30.2,87,29.63,3.0,NW,15.0,20.7,0.00,Snow,Light Snow,310,2013-03-21 07:25:00
1:28 AM,33.8,30.2,87,29.63,2.0,NW,11.5,-,0.00,Snow,Light Snow,310,2013-03-21 07:28:00
1:37 AM,33.8,28.4,81,29.63,1.8,NW,15.0,21.9,0.01,Snow,Light Snow,320,2013-03-21 07:37:00
1:45 AM,33.8,28.4,81,29.63,2.5,NW,11.5,-,0.02,Snow,Light Snow,320,2013-03-21 07:45:00
1:53 AM,33.1,28.9,85,29.65,2.0,NW,15.0,19.6,0.02,Snow,Light Snow,320,2013-03-21 07:53:00
2:22 AM,32.0,28.4,87,29.65,4.0,NW,11.5,-,0.00,Snow,Light Snow,320,2013-03-21 08:22:00
2:53 AM,32.0,28.0,85,29.66,2.5,NW,8.1,-,0.00,Snow,Light Snow,310,2013-03-21 08:53:00
3:01 AM,32.0,28.4,87,29.65,3.0,WSW,6.9,-,0.00,Snow,Light Snow,250,2013-03-21 09:01:00
3:10 AM,32.0,28.4,87,29.65,2.0,WNW,4.6,-,0.00,Snow,Light Snow,290,2013-03-21 09:10:00
3:28 AM,32.0,28.4,87,29.66,4.0,WSW,10.4,-,0.00,Snow,Light Snow,240,2013-03-21 09:28:00
3:46 AM,32.0,28.4,87,29.65,8.0,WSW,9.2,-,0.00,Snow,Light Snow,240,2013-03-21 09:46:00
3:53 AM,32.0,28.9,88,29.65,9.0,WSW,10.4,-,0.00,,Overcast,240,2013-03-21 09:53:00
4:53 AM,30.0,26.1,85,29.62,10.0,SW,9.2,-,0.00,,Mostly Cloudy,230,2013-03-21 10:53:00
5:53 AM,30.9,27.0,85,29.65,10.0,West,10.4,-,N/A,,Overcast,260,2013-03-21 11:53:00
6:53 AM,33.1,25.0,72,29.69,10.0,West,13.8,20.7,N/A,,Overcast,270,2013-03-21 12:53:00
7:20 AM,32.0,24.8,75,29.70,9.0,WNW,10.4,24.2,0.00,,Overcast,290,2013-03-21 13:20:00
7:31 AM,30.2,26.6,86,29.70,1.8,NW,9.2,-,0.00,Snow,Light Snow,310,2013-03-21 13:31:00
7:42 AM,30.2,26.6,86,29.70,3.0,West,6.9,-,0.00,Snow,Light Snow,270,2013-03-21 13:42:00
7:51 AM,30.2,26.6,86,29.70,9.0,West,9.2,-,0.00,,Overcast,260,2013-03-21 13:51:00
7:53 AM,30.9,26.1,82,29.73,9.0,West,12.7,-,0.00,,Overcast,260,2013-03-21 13:53:00
8:53 AM,32.0,23.0,69,29.73,10.0,WSW,20.7,-,N/A,,Overcast,250,2013-03-21 14:53:00
9:53 AM,32.0,23.0,69,29.75,10.0,SW,18.4,-,0.01,,Overcast,230,2013-03-21 15:53:00
10:53 AM,36.0,24.1,62,29.72,10.0,WSW,23.0,29.9,N/A,,Mostly Cloudy,240,2013-03-21 16:53:00
11:53 AM,39.0,17.1,41,29.72,10.0,West,24.2,33.4,N/A,,Clear,270,2013-03-21 17:53:00
12:53 PM,41.0,9.0,27,29.75,10.0,West,21.9,35.7,N/A,,Scattered Clouds,260,2013-03-21 18:53:00
1:53 PM,37.9,9.0,30,29.78,10.0,West,29.9,38.0,N/A,,Mostly Cloudy,270,2013-03-21 19:53:00
2:53 PM,37.9,12.0,35,29.81,10.0,WSW,24.2,32.2,N/A,,Overcast,240,2013-03-21 20:53:00
3:53 PM,41.0,12.9,32,29.80,10.0,West,23.0,31.1,N/A,,Mostly Cloudy,270,2013-03-21 21:53:00
4:53 PM,34.0,18.0,52,29.86,10.0,WSW,25.3,34.5,N/A,,Overcast,250,2013-03-21 22:53:00
5:53 PM,37.0,12.9,37,29.88,10.0,West,25.3,31.1,N/A,,Mostly Cloudy,260,2013-03-21 23:53:00
6:53 PM,32.0,12.9,45,29.89,10.0,WSW,20.7,26.5,N/A,,Overcast,240,2013-03-22 00:53:00
7:53 PM,28.9,10.9,47,29.93,10.0,WNW,11.5,-,N/A,,Overcast,290,2013-03-22 01:53:00
8:53 PM,26.1,12.9,58,29.94,10.0,NNW,6.9,-,N/A,,Overcast,340,2013-03-22 02:53:00
9:53 PM,23.0,14.0,68,29.96,10.0,West,5.8,-,N/A,,Clear,270,2013-03-22 03:53:00
10:53 PM,24.1,10.0,55,29.95,10.0,WSW,6.9,-,N/A,,Partly Cloudy,250,2013-03-22 04:53:00
11:53 PM,21.0,8.1,57,29.96,10.0,WNW,6.9,-,N/A,,Clear,290,2013-03-22 05:53:00